Regional Weather Roundup
Issued by NWS Grand Forks, ND

Home | Current Version | Previous Version | Graphics & Text | Print | Product List | Glossary On
Versions: 1 2 3 4 5 6 7 8 9 10 11 12 13 14 15 16 17 18 19 20 21 22 23 24 25 26 27 28 29 30 31 32 33 34 35 36 37 38 39 40 41 42 43 44 45 46 47 48 49 50
000
ASUS43 KFGF 220110
RWRFGF
PRAIRIE TO PINES  WEATHER ROUNDUP
NATIONAL WEATHER SERVICE EASTERN NORTH DAKOTA/GRAND FORKS ND
800 PM CDT THU MAY 21 2015

 **SATELLITE DATA USED TO AUGMENT SKY COVER AT AUTOMATED STATIONS**
 *****  WEATHER ACROSS EASTERN NORTH DAKOTA  *****

CITY           SKY/WX    TMP DP  RH WIND       PRES   REMARKS
GRAND FORKS    CLEAR     65  37  35 N9        30.10S
GRAND FRKS AFB CLEAR     65  35  32 NE7       30.11S
GRAND FRKS NWS   N/A     61 N/A N/A N6          N/A
DEVILS LAKE    SUNNY     68  28  22 NE8       30.11S
FARGO          CLEAR     66  40  38 NW10      30.09S
WAHPETON ARPT  CLEAR     64  32  29 N9        30.10R
$$

 ***** WEATHER ACROSS CENTRAL AND WESTERN NORTH DAKOTA  *****

CITY           SKY/WX    TMP DP  RH WIND       PRES   REMARKS
BISMARCK       SUNNY     71  43  36 S3        30.09F
MINOT          SUNNY     69  36  29 N8        30.09S
JAMESTOWN      CLEAR     66  42  41 NE10      30.10S
MINOT AFB      SUNNY     72  36  27 NE7       30.09R
GARRISON         N/A     73  28  18 CALM      30.09F
WILLISTON      SUNNY     73  28  18 VRB6      30.07F
DICKINSON      SUNNY     67  32  27 E8        30.09F
HETTINGER      SUNNY     65  32  29 SE13      30.13F
$$

 *****  OTHER AIRPORT OBSERVATIONS IN OUR AREA  *****

CITY           SKY/WX    TMP DP  RH WIND       PRES   REMARKS
WALHALLA       FAIR      66  32  28 NE6       30.11F
GRAFTON AIRPOR FAIR      64  37  36 N8        30.12R
VALLEY CITY AR FAIR      66  36  32 NE7       30.11R
CANDO          FAIR      66  30  26 NE9       30.12S
CAVALIER APRT  FAIR      66  36  32 N6        30.11S
GWINNER        NOT AVBL
SHEYENNE NWR     N/A     68  32  26 NE7       29.95S
ROLLA          FAIR      66  30  26 NE5       30.13S
 ***** THE ABOVE OBSERVATIONS ARE NON NWS ARE NOT QUALITY
       CONTROLLED AND MAY MIS-REPORT RAIN FOR SNOW...
$$

  *****  WEATHER ACROSS NORTHERN MINNESOTA  *****

CITY           SKY/WX    TMP DP  RH WIND       PRES   REMARKS
FLAG ISLAND    PTCLDY    61  37  41 N7        30.07S
WARROAD        PTCLDY    57  43  58 CALM      30.09S
ROSEAU         PTCLDY    64  37  36 NW6       30.09R
HALLOCK        CLEAR     64  27  24 N7        30.10S
THF RVR FALLS  CLEAR     64  32  29 N10       30.10S
BAUDETTE       CLEAR     60  32  34 NW6       30.08S
WASKISH        CLEAR     61  34  36 N7        30.08S
CROOKSTON      CLEAR     64  36  34 N10       30.11R
STEPHEN NDAWN    N/A     64  36  34 VRB8        N/A
GREENBUSH NDAW   N/A     63  37  39 NW9         N/A
$$
  *****  WEATHER ACROSS CENTRAL AND WEST MINNESOTA  *****

CITY           SKY/WX    TMP DP  RH WIND       PRES   REMARKS
FOSSTON        CLEAR     64  36  34 N7        30.09S
BEMIDJI        CLEAR     63  32  31 N7        30.07S
PARK RAPIDS    CLEAR     66  30  26 N13       30.07R
ELBOW LAKE     FAIR      65  35  32 N12       30.08S
WADENA         CLEAR     63  36  36 NW9       30.07R
DETROIT LAKES  CLEAR     64  32  29 N6        30.10R
MOORHEAD       CLEAR     64  36  34 NW13      30.10S
FERGUS FALLS   CLEAR     66  34  30 N12       30.09R
MORRIS MN      CLEAR     68  32  26 N12       30.08R
STAPLES        CLEAR     64  30  27 N8        30.06R
$$
  *****  WEATHER ELSEWHERE ACROSS MINNESOTA  *****

CITY           SKY/WX    TMP DP  RH WIND       PRES   REMARKS
DULUTH         CLEAR     63  26  24 N12       30.03R
INTRNTL FALLS  CLEAR     59  29  31 NW7       30.07R
ELY            CLEAR     57  23  26 NW7       30.04R
CLOQUET        CLEAR     63  21  20 NW12G17   30.03R
WHEATON        CLEAR     64  36  34 NW9       30.11S
BRAINERD       CLEAR     63  30  28 N10       30.07R
HIBBING        PTCLDY    61  26  26 N13       30.04S
ALEXANDRIA     CLEAR     65  32  29 N8        30.09S
SAINT CLOUD    CLEAR     66  36  32 N7        30.04R
MINNEAPOLIS    CLEAR     68  29  23 NW13G24   30.03R
$$

  *****  WEATHER ACROSS SOUTH DAKOTA  *****

CITY           SKY/WX    TMP DP  RH WIND       PRES   REMARKS
SIOUX FALLS    PTCLDY    67  38  34 NW8       30.10S
BROOKINGS      CLEAR     70  36  28 N8        30.11S
WATERTOWN      CLEAR     66  39  37 N9        30.10S
HURON          PTCLDY    69  42  37 NW8       30.09S
SISSETON         N/A     68  28  22 NE13      30.09R
ABERDEEN       CLEAR     72  39  30 N5        30.09S
MITCHELL       CLEAR     71  36  27 W7        30.12S
PIERRE         SUNNY     68  37  32 SE6       30.11F
MOBRIDGE       SUNNY     72  35  25 S5        30.08F
RAPID CITY     CLOUDY    60  39  45 S12       30.12F
$$

  *****  SOME WEATHER IN NEARBY STATES *****

CITY           SKY/WX    TMP DP  RH WIND       PRES   REMARKS
GLASGOW MT     SUNNY     70  28  21 SE17G25   30.04F
GREAT FALLS MT MOSUNNY   69  38  32 E14       29.93S
CHEYENNE WY    CLOUDY    50  42  74 SE13      30.11F
SCOTTSBLUFF NE CLOUDY    55  44  66 SE14      30.11F
OMAHA NE       PTCLDY    70  39  32 W6        30.14S
DES MOINES IA  PTCLDY    70  38  31 W9        30.08R
DAVENPORT IA   CLEAR     67  40  37 SW8       30.03S
CHICAGO IL     PTCLDY    65  36  34 W9        30.01S
EAU CLAIRE WI  CLEAR     66  34  30 N5        29.99R
LA CROSSE WI   CLEAR     67  43  41 NW7       29.98R
$$

  *****  SOME NATIONAL WEATHER *****

CITY           SKY/WX    TMP DP  RH WIND       PRES   REMARKS
LA GUARDIA NY  CLOUDY    54  41  61 S9        29.92S
RALEIGH NC     MOCLDY    62  57  83 NE7       29.92R
ATLANTA GA     PTCLDY    65  52  62 NW20      30.04R
NEW ORLEANS LA CLOUDY    74  68  81 NE10      30.04R
OKLAHOMA CITY  PTCLDY    63  48  58 NE9       30.16S
ALBUQUERQUE NM LGT RAIN  54  47  77 E22G28    30.03F
SALT LAKE CITY CLOUDY    61  44  53 N7        29.88F
LOS ANGELES CA MOSUNNY   63  48  58 W16       29.94S
BOISE ID       PTSUNNY   71  45  39 SE9       29.80S
SEATTLE WA     CLOUDY    76  53  44 S6        29.83F
$$

*** WEATHER ACROSS MANITOBA...SASKATCHEWAN AND ONTARIO ***
                ***ONTARIO***

CITY           SKY/WX    TMP DP  RH WIND       PRES   REMARKS
GERALDTON      CLEAR     41  19  42 N10       30.06R
THUNDER BAY    CLEAR     57  16  19 N6        30.02R
SIOUX LOOKOUT  CLEAR     54  19  26 N5        30.07S
TORONTO        MOCLDY    61  30  31 W12       29.85R
BIG TROUT LK   CLEAR     36  23  60 S3        30.14F
PICKLE LAKE    PTCLDY    43  18  36 N8        30.10R
DRYDEN         CLEAR     55  25  30 N7        30.07R
KENORA         PTCLDY    59  25  27 N9        30.09R
$$
                *** MANITOBA***

CITY           SKY/WX    TMP DP  RH WIND       PRES   REMARKS
BRANDON        MOSUNNY   70  39  32 SW13      30.09S
DAUPHIN        SUNNY     68  36  30 SE9       30.05F
ISLAND LAKE    PTCLDY    52  21  30 E7        30.11F
PILOT MOUND      N/A     66  30  26 NE5         N/A
THE PAS        MOSUNNY   68  37  32 SE17      29.99F
THOMPSON       MOSUNNY   63  25  23 SE3       30.06F
WINNIPEG       PTSUNNY   63  41  45 NE7       30.11S
LYNN LAKE      SUNNY     68  32  26 SE8       29.96F
CHURCHILL      MOSUNNY   45  30  57 E9        30.11F
GILLAM         MOSUNNY   50  19  29 NE3       30.12F
$$
                ***SASKATCHEWAN***

CITY           SKY/WX    TMP DP  RH WIND       PRES   REMARKS
ESTEVAN        PTSUNNY   66  36  32 E6        30.09F
KINDERSLEY     SUNNY     73  23  15 S20       30.01F
LLOYDMINSTER   SUNNY     73  21  14 S9G20     30.00F
PRINCE ALBERT  SUNNY     75  30  19 SW7       30.02F
REGINA         MOSUNNY   73  32  21 S6        30.07F
YORKTON        SUNNY     73  32  21 W10       30.06S
N. BATTLEFORD  SUNNY     75  25  15 S8        30.03F
LA RONGE       MOSUNNY   77  25  14 W9        29.96F
SASKATOON      SUNNY     73  28  19 SW7G18    30.06F
SWIFT CURRENT  SUNNY     70  27  19 S16G25    30.05F
$$
NOTE: THESE ARE AUTOMATED STATIONS WITH LIMITED QUALITY CONTROL
      "FAIR" INDICATES FEW OR NO CLOUDS BELOW 12,000 FEET WITH NO
      SIGNIFICANT WEATHER AND/OR OBSTRUCTIONS TO VISIBILITY.
      SKY/WX - SKY CONDITION AND SIGNIFICANT WEATHER.
      TMP - AIR TEMPERATURE.    DP   - DEWPOINT TEMPERATURE.
      RH  - RELATIVE HUMIDITY.  PRES - PRESSURE.
      HX  - HEAT INDEX.         WCI  - WIND CHILL INDEX.
$


USA.gov is the U.S. government's official web portal to all federal, state and local government web resources and services.